Aérodrome :
LOGIN :

S'inscrire | Disclaimer

   EN    FR    IT 

 










Légende :    VFR   VFR Marginal   IFR   IFR Intensif   IFR Très Intensif
Visi : 
Plafond : 
>= 8 km
>= 3000ft
5 à 8 km
1000 à 3000 ft
1500m à 5 km
500 à 1000 ft
800 à 1500m
200 à 500 ft
< 800m
< 200 ft
Symboles :   Orages  Brouillard  Fortes neiges  Fortes précipitations  Vent > 20 kt
SIGMETs :   Divers  Orages  Givrage  Turbulence  Onde Orograph.  Cendres Volcan.







- Altitude de l'aérodrome : 93 ft
- Code IATA : HDF


EDAH - Heringsdorf

DERNIER METAR :
  • 221650Z 13012KT CAVOK 16/06 Q1018

METARs EXPIRÉS :
  • 221620Z 12012KT CAVOK 16/06 Q1018
  • 221550Z 04006KT 360V090 CAVOK 14/06 Q1018
  • 221520Z 04007KT 360V070 CAVOK 13/06 Q1018
  • 221450Z 06008KT 020V090 CAVOK 13/06 Q1019
  • 221420Z 04012KT CAVOK 13/05 Q1019
  • 221350Z 04013KT 010V070 CAVOK 13/04 Q1019

TAF TAF EDAH
Valide du 22 à 15h jusqu'au 23 à 00h UTC


221400Z 2215/2224 06011KT CAVOK
PROB30
TEMPO 2215/2217 07015G25KT
Pas de NOTAMs connus pour ce terrain.



MET'MAP, la Météo Aéronautique d'un coup d'oeil ! - Copyright ORBIFLY Décembre 2007 - Disclaimer

ORBIFLY MET'MAP TEAM :

Programmation & Développement : Alexandra Zaïnal
Conception & Développement : Baudouin d'Aumeries
Co-Programmation & Développement : Marc-Olivier Méhu
Soutien technique & logistique : Manuel Goepfert

Contact : metmap@orbifly.com




SOURCES & CREDITS :

   NOAA